Weather History for Linton-On-Ouse, United Kingdom

Change the Weather History Date:

Monday, December 24, 2012

  Actual Average (EGNM) Record (EGNM)
Temperature  
Mean Temperature 40 °F -  
Max Temperature 42 °F 41 °F 53 °F (1997)
Min Temperature 37 °F 34 °F 23 °F (2010)
Degree Days  
Heating Degree Days 26    
Moisture  
Dew Point 40 °F    
Average Humidity 97    
Maximum Humidity 100    
Minimum Humidity 81    
Precipitation  
Precipitation 0.12 in - - ()
Sea Level Pressure  
Sea Level Pressure 29.39 in    
Wind  
Wind Speed 6 mph ()    
Max Wind Speed 12 mph    
Max Gust Speed -    
Visibility 4.6 miles    
Events      
Averages and records for this station are not official NWS values.
T = Trace of Precipitation, MM = Missing Value Source: Averaged Metar Reports

Daily Weather History Graph

Daily Weather History Graph

Search for Another Location

Airport:

Trip Planner

Search our weather history database for the weather conditions in past years. The results will help you decide how hot, cold, wet, or windy it might be!

Date:

Astronomy

Dec. 24, 2012 Rise Set
Actual Time 8:23 AM GMT 3:46 PM GMT
Civil Twilight 7:39 AM GMT 4:29 PM GMT
Nautical Twilight 6:53 AM GMT 5:16 PM GMT
Astronomical Twilight 6:10 AM GMT 5:59 PM GMT
Moon 1:17 PM GMT (12/24) 4:33 AM GMT (12/24)
Length of Visible Light 8h 50m
Length of Day
7h 22m
Waxing Gibbous, 87% of the Moon is Illuminated
Dec 24
Waxing Gibbous
Dec 28
Full
Jan 5
Last Quarter
Jan 11
New
Jan 18
First Quarter

Hourly Weather History & Observations

Time (GMT) Temp. Windchill Dew Point Humidity Pressure Visibility Wind Dir Wind Speed Gust Speed Precip Events Conditions
12:50 AM 44.6 °F 41.4 °F 39.2 °F 81% 29.59 in 6.2 mi SSW 5.8 mph - N/A   Mostly Cloudy
1:50 AM 42.8 °F 38.0 °F 39.2 °F 87% 29.56 in 6.2 mi South 8.1 mph - N/A   Mostly Cloudy
2:50 AM 44 °F - 40 °F 82% 29.58 in 11 mi SSW 11.5 mph - -   Mostly Cloudy
2:50 AM 44.6 °F 38.8 °F 41.0 °F 87% 29.56 in 6.2 mi SSW 11.5 mph - N/A   Mostly Cloudy
3:50 AM 42.8 °F 37.5 °F 39.2 °F 87% 29.56 in 6.2 mi SSW 9.2 mph - N/A   Mostly Cloudy
4:50 AM 41.0 °F 36.4 °F 39.2 °F 93% 29.53 in 6.2 mi SE 6.9 mph - N/A   Mostly Cloudy
5:50 AM 40 °F - 38 °F 91%  in 12 mi SSE 6.9 mph - -   Mostly Cloudy
5:50 AM 39.2 °F 34.2 °F 39.2 °F 100% 29.50 in 6.2 mi SSE 6.9 mph - N/A   Mostly Cloudy
6:50 AM 37.4 °F 32.8 °F 37.4 °F 100% 29.50 in 6.2 mi ESE 5.8 mph - N/A   Mostly Cloudy
7:50 AM 37.4 °F 33.8 °F 37.4 °F 100% 29.50 in 6.2 mi East 4.6 mph - N/A   Mostly Cloudy
8:50 AM 38 °F - 38 °F 100% 29.48 in 5 mi SE 5.8 mph - -   Overcast
8:50 AM 39.2 °F 35.0 °F 39.2 °F 100% 29.47 in 5.0 mi SE 5.8 mph - N/A   Overcast
9:50 AM 39.2 °F 37.0 °F 39.2 °F 100% 29.44 in 5.6 mi East 3.5 mph - N/A   Mostly Cloudy
10:50 AM 42.8 °F 40.1 °F 42.8 °F 100% 29.42 in 3.1 mi SE 4.6 mph - N/A   Mostly Cloudy
11:50 AM 42 °F - 42 °F 100% 29.38 in 2 mi SE 3.5 mph - -   Mostly Cloudy
11:50 AM 42.8 °F 41.1 °F 42.8 °F 100% 29.36 in 1.7 mi SE 3.5 mph - N/A   Mostly Cloudy
12:50 PM 42.8 °F 40.1 °F 42.8 °F 100% 29.33 in 1.7 mi ESE 4.6 mph - N/A   Mostly Cloudy
1:50 PM 42.8 °F 41.1 °F 42.8 °F 100% 29.30 in 1.6 mi NE 3.5 mph - N/A   Mostly Cloudy
2:50 PM 42 °F - 42 °F 100% 29.29 in 1 mi WNW 4.6 mph - -   Mostly Cloudy
2:50 PM 42.8 °F 40.1 °F 42.8 °F 100% 29.27 in 1.5 mi WNW 4.6 mph - N/A   Scattered Clouds
3:50 PM 41.0 °F 37.1 °F 41.0 °F 100% 29.27 in 1.6 mi WNW 5.8 mph - N/A   Mostly Cloudy
4:50 PM 41.0 °F 37.1 °F 41.0 °F 100% 29.27 in 4.3 mi SW 5.8 mph - N/A   Mostly Cloudy
5:50 PM 40 °F - 40 °F 100% 29.30 in 3 mi SSW 6.9 mph - -   Mostly Cloudy
5:50 PM 41.0 °F 36.4 °F 41.0 °F 100% 29.30 in 3.1 mi SSW 6.9 mph - N/A   Mostly Cloudy
6:50 PM 41.0 °F 36.4 °F 41.0 °F 100% 29.30 in 5.0 mi SSW 6.9 mph - N/A   Mostly Cloudy
7:50 PM 41.0 °F 36.4 °F 41.0 °F 100% 29.30 in 3.1 mi South 6.9 mph - N/A   Scattered Clouds
8:50 PM 40 °F - 40 °F 99% 29.31 in 5 mi South 8.1 mph - -   Scattered Clouds
8:50 PM 41.0 °F 35.8 °F 39.2 °F 93% 29.30 in 5.0 mi South 8.1 mph - N/A   Partly Cloudy
9:50 PM 39.2 °F 33.6 °F 39.2 °F 100% 29.30 in 3.7 mi South 8.1 mph - N/A   Unknown
10:50 PM 41.0 °F 35.8 °F 41.0 °F 100% 29.27 in 6.2 mi SSW 8.1 mph - N/A   Mostly Cloudy
11:50 PM 40 °F - 39 °F 95% 29.29 in 3 mi SE 5.8 mph - -   Mostly Cloudy
11:50 PM 39.2 °F 35.0 °F 39.2 °F 100% 29.27 in 3.1 mi SE 5.8 mph - N/A   Mostly Cloudy